Time,TemperatureF,DewpointF,PressureIn,WindDirection,WindDirectionDegrees,WindSpeedMPH,WindSpeedGustMPH,Humidity,HourlyPrecipIn,Conditions,Clouds,dailyrainin,SoftwareType,DateUTC
2013-03-20 00:00:00,39.8,27.9,29.83,WNW,287,3.0,4.0,62,0.00,,---,0.00,VWS V13.00,2013-03-20 07:00:00,
2013-03-20 00:05:00,39.8,29.0,29.83,WNW,290,2.0,4.0,65,0.00,,---,0.00,VWS V13.00,2013-03-20 07:05:00,
2013-03-20 00:10:00,39.8,29.4,29.83,West,277,3.0,4.0,66,0.00,,---,0.00,VWS V13.00,2013-03-20 07:10:00,
2013-03-20 00:15:00,39.7,29.7,29.82,West,277,1.0,4.0,67,0.00,,---,0.00,VWS V13.00,2013-03-20 07:15:00,
2013-03-20 00:20:00,39.7,30.0,29.82,West,277,0.0,4.0,68,0.00,,---,0.00,VWS V13.00,2013-03-20 07:20:00,
2013-03-20 00:25:00,39.6,30.3,29.82,West,277,1.0,4.0,69,0.00,,---,0.00,VWS V13.00,2013-03-20 07:25:00,
2013-03-20 00:30:00,39.5,30.5,29.82,WSW,245,0.0,1.0,70,0.00,,---,0.00,VWS V13.00,2013-03-20 07:30:00,
2013-03-20 00:35:00,39.4,30.4,29.81,WSW,245,0.0,3.0,70,0.01,,---,0.01,VWS V13.00,2013-03-20 07:35:00,
2013-03-20 00:40:00,39.3,31.0,29.81,NW,309,2.0,4.0,72,0.01,,---,0.01,VWS V13.00,2013-03-20 07:40:00,
2013-03-20 00:45:00,39.2,31.3,29.80,NW,306,1.0,4.0,73,0.01,,---,0.01,VWS V13.00,2013-03-20 07:45:00,
2013-03-20 00:50:00,39.0,31.8,29.80,NNW,331,1.0,5.0,75,0.01,,---,0.01,VWS V13.00,2013-03-20 07:50:00,
2013-03-20 00:55:00,38.8,31.9,29.80,NNW,331,0.0,5.0,76,0.01,,---,0.01,VWS V13.00,2013-03-20 07:55:00,
2013-03-20 01:00:00,38.7,31.8,29.79,NNW,331,0.0,0.0,76,0.01,,---,0.01,VWS V13.00,2013-03-20 08:00:00,
2013-03-20 01:05:00,38.6,32.0,29.79,NNW,331,1.0,2.0,77,0.02,,---,0.02,VWS V13.00,2013-03-20 08:05:00,
2013-03-20 01:10:00,38.5,32.2,29.79,NNW,331,1.0,3.0,78,0.02,,---,0.02,VWS V13.00,2013-03-20 08:10:00,
2013-03-20 01:15:00,38.4,32.8,29.79,NNW,331,1.0,3.0,80,0.02,,---,0.03,VWS V13.00,2013-03-20 08:15:00,
2013-03-20 01:20:00,38.4,33.1,29.79,NNW,331,2.0,3.0,81,0.03,,---,0.03,VWS V13.00,2013-03-20 08:20:00,
2013-03-20 01:25:00,38.2,33.2,29.78,NNW,331,2.0,3.0,82,0.04,,---,0.04,VWS V13.00,2013-03-20 08:25:00,
2013-03-20 01:30:00,38.1,33.4,29.78,NNW,331,0.0,0.0,83,0.04,,---,0.04,VWS V13.00,2013-03-20 08:30:00,
2013-03-20 01:35:00,38.0,33.3,29.77,NNW,331,2.0,3.0,83,0.05,,---,0.05,VWS V13.00,2013-03-20 08:35:00,
2013-03-20 01:40:00,37.9,33.5,29.77,NNW,331,2.0,3.0,84,0.05,,---,0.05,VWS V13.00,2013-03-20 08:40:00,
2013-03-20 01:45:00,37.8,33.7,29.77,NNW,331,1.0,3.0,85,0.05,,---,0.05,VWS V13.00,2013-03-20 08:45:00,
2013-03-20 01:50:00,37.7,33.9,29.76,NNW,331,1.0,3.0,86,0.05,,---,0.05,VWS V13.00,2013-03-20 08:50:00,
2013-03-20 01:55:00,37.7,33.9,29.76,West,265,2.0,3.0,86,0.05,,---,0.05,VWS V13.00,2013-03-20 08:55:00,
2013-03-20 02:00:00,37.6,34.1,29.75,West,275,3.0,4.0,87,0.04,,---,0.05,VWS V13.00,2013-03-20 09:00:00,
2013-03-20 02:05:00,37.5,34.0,29.75,West,275,2.0,4.0,87,0.04,,---,0.05,VWS V13.00,2013-03-20 09:05:00,
2013-03-20 02:10:00,37.5,34.3,29.75,West,275,2.0,4.0,88,0.04,,---,0.05,VWS V13.00,2013-03-20 09:10:00,
2013-03-20 02:15:00,37.5,34.3,29.75,West,275,3.0,4.0,88,0.04,,---,0.05,VWS V13.00,2013-03-20 09:15:00,
2013-03-20 02:20:00,37.5,34.6,29.75,West,275,4.0,4.0,89,0.04,,---,0.05,VWS V13.00,2013-03-20 09:20:00,
2013-03-20 02:25:00,37.5,34.6,29.75,West,264,3.0,5.0,89,0.04,,---,0.05,VWS V13.00,2013-03-20 09:25:00,
2013-03-20 02:30:00,37.6,34.9,29.74,West,264,1.0,3.0,90,0.01,,---,0.05,VWS V13.00,2013-03-20 09:30:00,
2013-03-20 02:35:00,37.5,34.8,29.74,West,264,2.0,3.0,90,0.01,,---,0.05,VWS V13.00,2013-03-20 09:35:00,
2013-03-20 02:40:00,37.6,34.9,29.74,WSW,250,2.0,4.0,90,0.01,,---,0.05,VWS V13.00,2013-03-20 09:40:00,
2013-03-20 02:45:00,37.5,34.8,29.74,WSW,251,2.0,4.0,90,0.01,,---,0.05,VWS V13.00,2013-03-20 09:45:00,
2013-03-20 02:50:00,37.6,34.9,29.74,WSW,251,3.0,4.0,90,0.01,,---,0.05,VWS V13.00,2013-03-20 09:50:00,
2013-03-20 02:55:00,37.5,34.8,29.74,West,269,3.0,5.0,90,0.01,,---,0.05,VWS V13.00,2013-03-20 09:55:00,
2013-03-20 03:00:00,37.6,35.2,29.74,WSW,244,4.0,5.0,91,0.00,,---,0.05,VWS V13.00,2013-03-20 10:00:00,
2013-03-20 03:05:00,37.6,35.2,29.73,WSW,244,1.0,5.0,91,0.00,,---,0.05,VWS V13.00,2013-03-20 10:05:00,
2013-03-20 03:10:00,37.6,35.2,29.73,WSW,244,3.0,5.0,91,0.00,,---,0.05,VWS V13.00,2013-03-20 10:10:00,
2013-03-20 03:15:00,37.6,35.2,29.73,SW,231,1.0,5.0,91,0.01,,---,0.06,VWS V13.00,2013-03-20 10:15:00,
2013-03-20 03:20:00,37.7,35.3,29.73,SW,235,1.0,5.0,91,0.01,,---,0.06,VWS V13.00,2013-03-20 10:20:00,
2013-03-20 03:25:00,37.7,35.3,29.72,SW,235,0.0,5.0,91,0.02,,---,0.07,VWS V13.00,2013-03-20 10:25:00,
2013-03-20 03:30:00,37.7,35.3,29.72,SW,235,1.0,2.0,91,0.02,,---,0.07,VWS V13.00,2013-03-20 10:30:00,
2013-03-20 03:35:00,37.7,35.3,29.71,SW,234,0.0,2.0,91,0.02,,---,0.07,VWS V13.00,2013-03-20 10:35:00,
2013-03-20 03:40:00,37.8,35.4,29.71,SW,235,2.0,2.0,91,0.03,,---,0.08,VWS V13.00,2013-03-20 10:40:00,
2013-03-20 03:45:00,37.8,35.4,29.71,SW,235,3.0,3.0,91,0.03,,---,0.08,VWS V13.00,2013-03-20 10:45:00,
2013-03-20 03:50:00,37.8,35.7,29.72,WSW,238,3.0,4.0,92,0.03,,---,0.08,VWS V13.00,2013-03-20 10:50:00,
2013-03-20 03:55:00,37.9,35.8,29.71,WSW,240,3.0,4.0,92,0.03,,---,0.09,VWS V13.00,2013-03-20 10:55:00,
2013-03-20 04:00:00,37.9,35.8,29.71,WSW,240,2.0,3.0,92,0.04,,---,0.09,VWS V13.00,2013-03-20 11:00:00,
2013-03-20 04:05:00,38.0,35.9,29.71,WSW,240,1.0,3.0,92,0.04,,---,0.09,VWS V13.00,2013-03-20 11:05:00,
2013-03-20 04:10:00,38.0,35.9,29.71,WSW,240,0.0,3.0,92,0.05,,---,0.10,VWS V13.00,2013-03-20 11:10:00,
2013-03-20 04:15:00,38.0,35.9,29.70,WSW,240,2.0,3.0,92,0.06,,---,0.11,VWS V13.00,2013-03-20 11:15:00,
2013-03-20 04:20:00,38.0,35.9,29.70,WSW,240,1.0,3.0,92,0.07,,---,0.12,VWS V13.00,2013-03-20 11:20:00,
2013-03-20 04:25:00,38.0,35.9,29.69,WSW,240,0.0,3.0,92,0.07,,---,0.12,VWS V13.00,2013-03-20 11:25:00,
2013-03-20 04:30:00,38.0,35.9,29.69,WSW,240,0.0,0.0,92,0.06,,---,0.13,VWS V13.00,2013-03-20 11:30:00,
2013-03-20 04:35:00,38.1,36.0,29.69,WSW,240,0.0,0.0,92,0.07,,---,0.14,VWS V13.00,2013-03-20 11:35:00,
2013-03-20 04:40:00,38.1,36.0,29.69,WSW,240,1.0,2.0,92,0.08,,---,0.15,VWS V13.00,2013-03-20 11:40:00,
2013-03-20 04:45:00,38.2,36.1,29.69,WSW,240,0.0,2.0,92,0.08,,---,0.15,VWS V13.00,2013-03-20 11:45:00,
2013-03-20 04:50:00,38.3,36.2,29.69,WSW,240,0.0,2.0,92,0.08,,---,0.16,VWS V13.00,2013-03-20 11:50:00,
2013-03-20 04:55:00,38.5,36.7,29.68,WSW,240,2.0,2.0,93,0.09,,---,0.16,VWS V13.00,2013-03-20 11:55:00,
2013-03-20 05:00:00,38.6,36.8,29.68,West,268,2.0,3.0,93,0.08,,---,0.17,VWS V13.00,2013-03-20 12:00:00,
2013-03-20 05:05:00,38.6,36.8,29.67,West,268,1.0,3.0,93,0.08,,---,0.17,VWS V13.00,2013-03-20 12:05:00,
2013-03-20 05:10:00,38.6,36.8,29.67,West,268,0.0,3.0,93,0.08,,---,0.17,VWS V13.00,2013-03-20 12:10:00,
2013-03-20 05:15:00,38.6,36.8,29.67,West,268,0.0,3.0,93,0.09,,---,0.18,VWS V13.00,2013-03-20 12:15:00,
2013-03-20 05:20:00,38.6,36.8,29.66,West,268,0.0,3.0,93,0.09,,---,0.18,VWS V13.00,2013-03-20 12:20:00,
2013-03-20 05:25:00,38.7,36.8,29.66,West,268,0.0,3.0,93,0.09,,---,0.18,VWS V13.00,2013-03-20 12:25:00,
2013-03-20 05:30:00,38.9,37.0,29.65,West,268,0.0,0.0,93,0.06,,---,0.19,VWS V13.00,2013-03-20 12:30:00,
2013-03-20 05:35:00,38.9,37.0,29.65,West,268,0.0,1.0,93,0.06,,---,0.19,VWS V13.00,2013-03-20 12:35:00,
2013-03-20 05:40:00,39.0,37.2,29.65,West,268,3.0,4.0,93,0.06,,---,0.19,VWS V13.00,2013-03-20 12:40:00,
2013-03-20 05:45:00,39.1,37.2,29.65,WSW,253,3.0,5.0,93,0.06,,---,0.19,VWS V13.00,2013-03-20 12:45:00,
2013-03-20 05:50:00,39.0,37.2,29.65,WSW,253,1.0,5.0,93,0.07,,---,0.20,VWS V13.00,2013-03-20 12:50:00,
2013-03-20 05:55:00,39.0,37.2,29.65,WSW,253,0.0,5.0,93,0.07,,---,0.20,VWS V13.00,2013-03-20 12:55:00,
2013-03-20 06:00:00,39.0,37.2,29.66,WSW,253,1.0,2.0,93,0.04,,---,0.20,VWS V13.00,2013-03-20 13:00:00,
2013-03-20 06:05:00,39.0,37.2,29.65,WSW,253,1.0,2.0,93,0.04,,---,0.20,VWS V13.00,2013-03-20 13:05:00,
2013-03-20 06:10:00,39.0,37.2,29.65,WSW,253,1.0,2.0,93,0.04,,---,0.20,VWS V13.00,2013-03-20 13:10:00,
2013-03-20 06:15:00,39.0,37.2,29.65,WSW,253,1.0,2.0,93,0.04,,---,0.20,VWS V13.00,2013-03-20 13:15:00,
2013-03-20 06:20:00,39.1,37.2,29.64,WSW,253,1.0,2.0,93,0.04,,---,0.20,VWS V13.00,2013-03-20 13:20:00,
2013-03-20 06:25:00,39.2,37.3,29.64,WSW,253,1.0,3.0,93,0.04,,---,0.20,VWS V13.00,2013-03-20 13:25:00,
2013-03-20 06:30:00,39.2,37.3,29.64,WSW,253,0.0,0.0,93,0.01,,---,0.20,VWS V13.00,2013-03-20 13:30:00,
2013-03-20 06:35:00,39.3,37.5,29.64,WSW,253,0.0,0.0,93,0.01,,---,0.20,VWS V13.00,2013-03-20 13:35:00,
2013-03-20 06:40:00,39.3,37.5,29.64,SE,136,0.0,3.0,93,0.01,,---,0.20,VWS V13.00,2013-03-20 13:40:00,
2013-03-20 06:45:00,39.3,37.5,29.63,SE,136,0.0,3.0,93,0.01,,---,0.20,VWS V13.00,2013-03-20 13:45:00,
2013-03-20 06:50:00,39.4,37.5,29.63,SE,136,0.0,3.0,93,0.01,,---,0.20,VWS V13.00,2013-03-20 13:50:00,
2013-03-20 06:55:00,39.6,38.0,29.63,SE,136,0.0,3.0,94,0.01,,---,0.20,VWS V13.00,2013-03-20 13:55:00,
2013-03-20 07:00:00,39.8,38.2,29.63,SE,136,0.0,0.0,94,0.00,,---,0.20,VWS V13.00,2013-03-20 14:00:00,
2013-03-20 07:05:00,40.0,38.4,29.62,SE,136,0.0,1.0,94,0.00,,---,0.20,VWS V13.00,2013-03-20 14:05:00,
2013-03-20 07:10:00,40.1,38.5,29.63,SE,136,2.0,3.0,94,0.01,,---,0.21,VWS V13.00,2013-03-20 14:10:00,
2013-03-20 07:15:00,40.1,38.5,29.63,SE,136,0.0,3.0,94,0.01,,---,0.21,VWS V13.00,2013-03-20 14:15:00,
2013-03-20 07:20:00,40.2,38.6,29.62,SE,136,0.0,3.0,94,0.02,,---,0.22,VWS V13.00,2013-03-20 14:20:00,
2013-03-20 07:25:00,40.2,38.6,29.62,SE,136,0.0,3.0,94,0.02,,---,0.22,VWS V13.00,2013-03-20 14:25:00,
2013-03-20 07:30:00,40.2,38.6,29.62,SE,136,0.0,0.0,94,0.03,,---,0.23,VWS V13.00,2013-03-20 14:30:00,
2013-03-20 07:35:00,40.2,38.6,29.62,WNW,282,1.0,4.0,94,0.04,,---,0.24,VWS V13.00,2013-03-20 14:35:00,
2013-03-20 07:40:00,40.2,38.6,29.62,WNW,282,0.0,4.0,94,0.04,,---,0.24,VWS V13.00,2013-03-20 14:40:00,
2013-03-20 07:45:00,40.2,38.6,29.62,WNW,282,2.0,4.0,94,0.04,,---,0.24,VWS V13.00,2013-03-20 14:45:00,
2013-03-20 07:50:00,40.2,38.6,29.61,West,281,0.0,4.0,94,0.04,,---,0.24,VWS V13.00,2013-03-20 14:50:00,
2013-03-20 07:55:00,40.3,38.7,29.61,WNW,282,1.0,4.0,94,0.05,,---,0.25,VWS V13.00,2013-03-20 14:55:00,
2013-03-20 08:00:00,40.3,38.7,29.61,WNW,282,0.0,0.0,94,0.05,,---,0.25,VWS V13.00,2013-03-20 15:00:00,
2013-03-20 08:05:00,40.4,38.8,29.61,West,281,0.0,2.0,94,0.05,,---,0.25,VWS V13.00,2013-03-20 15:05:00,
2013-03-20 08:10:00,40.6,39.0,29.61,SSE,153,0.0,3.0,94,0.05,,---,0.25,VWS V13.00,2013-03-20 15:10:00,
2013-03-20 08:15:00,41.0,39.4,29.61,SE,126,0.0,4.0,94,0.05,,---,0.25,VWS V13.00,2013-03-20 15:15:00,
2013-03-20 08:20:00,41.1,39.5,29.60,SE,127,0.0,4.0,94,0.05,,---,0.25,VWS V13.00,2013-03-20 15:20:00,
2013-03-20 08:25:00,41.3,39.7,29.60,SE,127,0.0,4.0,94,0.05,,---,0.25,VWS V13.00,2013-03-20 15:25:00,
2013-03-20 08:30:00,41.5,39.9,29.59,SE,126,0.0,0.0,94,0.02,,---,0.25,VWS V13.00,2013-03-20 15:30:00,
2013-03-20 08:35:00,41.6,40.0,29.59,SE,126,0.0,0.0,94,0.02,,---,0.25,VWS V13.00,2013-03-20 15:35:00,
2013-03-20 08:40:00,41.7,40.1,29.58,SE,127,0.0,0.0,94,0.02,,---,0.25,VWS V13.00,2013-03-20 15:40:00,
2013-03-20 08:45:00,41.9,40.6,29.59,SE,127,0.0,1.0,95,0.03,,---,0.26,VWS V13.00,2013-03-20 15:45:00,
2013-03-20 08:50:00,42.0,40.7,29.58,SE,127,2.0,2.0,95,0.03,,---,0.26,VWS V13.00,2013-03-20 15:50:00,
2013-03-20 08:55:00,42.2,40.6,29.58,SE,127,0.0,2.0,94,0.03,,---,0.26,VWS V13.00,2013-03-20 15:55:00,
2013-03-20 09:00:00,42.2,40.6,29.59,SE,127,1.0,1.0,94,0.01,,---,0.26,VWS V13.00,2013-03-20 16:00:00,
2013-03-20 09:05:00,42.4,40.8,29.59,SE,127,0.0,1.0,94,0.01,,---,0.26,VWS V13.00,2013-03-20 16:05:00,
2013-03-20 09:10:00,42.5,41.2,29.58,SE,126,2.0,2.0,95,0.02,,---,0.27,VWS V13.00,2013-03-20 16:10:00,
2013-03-20 09:15:00,42.6,41.3,29.58,SE,127,0.0,2.0,95,0.02,,---,0.27,VWS V13.00,2013-03-20 16:15:00,
2013-03-20 09:20:00,42.7,41.4,29.58,SE,127,0.0,2.0,95,0.02,,---,0.27,VWS V13.00,2013-03-20 16:20:00,
2013-03-20 09:25:00,42.9,41.6,29.58,SE,127,0.0,3.0,95,0.02,,---,0.27,VWS V13.00,2013-03-20 16:25:00,
2013-03-20 09:30:00,43.0,41.7,29.58,SE,127,0.0,1.0,95,0.02,,---,0.27,VWS V13.00,2013-03-20 16:30:00,
2013-03-20 09:35:00,43.1,41.8,29.58,SE,126,0.0,1.0,95,0.02,,---,0.27,VWS V13.00,2013-03-20 16:35:00,
2013-03-20 09:40:00,43.2,41.9,29.57,SE,127,1.0,1.0,95,0.02,,---,0.27,VWS V13.00,2013-03-20 16:40:00,
2013-03-20 09:45:00,43.4,42.1,29.57,SE,127,1.0,2.0,95,0.02,,---,0.27,VWS V13.00,2013-03-20 16:45:00,
2013-03-20 09:50:00,43.8,42.5,29.57,SE,129,0.0,6.0,95,0.02,,---,0.27,VWS V13.00,2013-03-20 16:50:00,
2013-03-20 09:55:00,44.1,42.8,29.57,SE,129,0.0,6.0,95,0.02,,---,0.27,VWS V13.00,2013-03-20 16:55:00,
2013-03-20 10:00:00,44.3,43.0,29.57,ESE,114,2.0,4.0,95,0.01,,---,0.27,VWS V13.00,2013-03-20 17:00:00,
2013-03-20 10:05:00,44.5,43.2,29.56,ESE,102,1.0,5.0,95,0.01,,---,0.27,VWS V13.00,2013-03-20 17:05:00,
2013-03-20 10:10:00,44.7,43.4,29.56,ESE,109,4.0,9.0,95,0.01,,---,0.27,VWS V13.00,2013-03-20 17:10:00,
2013-03-20 10:15:00,45.0,43.7,29.56,ESE,114,4.0,9.0,95,0.01,,---,0.27,VWS V13.00,2013-03-20 17:15:00,
2013-03-20 10:20:00,45.3,44.0,29.55,ESE,107,2.0,9.0,95,0.01,,---,0.27,VWS V13.00,2013-03-20 17:20:00,
2013-03-20 10:25:00,45.5,44.2,29.55,ESE,109,2.0,9.0,95,0.01,,---,0.27,VWS V13.00,2013-03-20 17:25:00,
2013-03-20 10:30:00,45.6,44.0,29.55,SE,132,4.0,7.0,94,0.00,,---,0.27,VWS V13.00,2013-03-20 17:30:00,
2013-03-20 10:35:00,45.7,44.1,29.55,ESE,112,2.0,9.0,94,0.00,,---,0.27,VWS V13.00,2013-03-20 17:35:00,
2013-03-20 10:40:00,45.8,44.2,29.55,East,99,2.0,9.0,94,0.00,,---,0.27,VWS V13.00,2013-03-20 17:40:00,
2013-03-20 10:45:00,45.9,44.3,29.55,East,101,1.0,9.0,94,0.00,,---,0.27,VWS V13.00,2013-03-20 17:45:00,
2013-03-20 10:50:00,46.1,44.2,29.55,ESE,113,2.0,9.0,93,0.00,,---,0.27,VWS V13.00,2013-03-20 17:50:00,
2013-03-20 10:55:00,46.3,44.4,29.54,ESE,113,1.0,9.0,93,0.01,,---,0.28,VWS V13.00,2013-03-20 17:55:00,
2013-03-20 11:00:00,46.6,44.7,29.54,ESE,111,2.0,3.0,93,0.01,,---,0.28,VWS V13.00,2013-03-20 18:00:00,
2013-03-20 11:05:00,46.8,44.9,29.54,ESE,107,4.0,15.0,93,0.01,,---,0.28,VWS V13.00,2013-03-20 18:05:00,
2013-03-20 11:10:00,46.9,44.7,29.55,SSE,167,3.0,15.0,92,0.02,,---,0.29,VWS V13.00,2013-03-20 18:10:00,
2013-03-20 11:15:00,46.9,44.4,29.55,SSE,148,3.0,15.0,91,0.04,,---,0.31,VWS V13.00,2013-03-20 18:15:00,
2013-03-20 11:20:00,46.8,44.3,29.54,SSE,148,0.0,15.0,91,0.05,,---,0.32,VWS V13.00,2013-03-20 18:20:00,
2013-03-20 11:25:00,46.8,44.3,29.54,SSE,148,0.0,15.0,91,0.05,,---,0.32,VWS V13.00,2013-03-20 18:25:00,
2013-03-20 11:30:00,46.8,44.3,29.54,SSE,148,0.0,1.0,91,0.06,,---,0.33,VWS V13.00,2013-03-20 18:30:00,
2013-03-20 11:35:00,46.8,44.3,29.53,SSE,148,0.0,4.0,91,0.06,,---,0.33,VWS V13.00,2013-03-20 18:35:00,
2013-03-20 11:40:00,46.9,44.7,29.53,SSE,148,1.0,4.0,92,0.06,,---,0.33,VWS V13.00,2013-03-20 18:40:00,
2013-03-20 11:45:00,47.1,44.9,29.52,SE,145,3.0,5.0,92,0.06,,---,0.33,VWS V13.00,2013-03-20 18:45:00,
2013-03-20 11:50:00,47.2,45.0,29.52,SE,144,3.0,5.0,92,0.06,,---,0.33,VWS V13.00,2013-03-20 18:50:00,
2013-03-20 11:55:00,47.5,45.3,29.52,SE,144,0.0,5.0,92,0.06,,---,0.33,VWS V13.00,2013-03-20 18:55:00,
2013-03-20 12:00:00,47.9,46.0,29.52,SE,132,1.0,2.0,93,0.05,,---,0.33,VWS V13.00,2013-03-20 19:00:00,
2013-03-20 12:05:00,47.9,45.7,29.51,NE,42,0.0,4.0,92,0.05,,---,0.33,VWS V13.00,2013-03-20 19:05:00,
2013-03-20 12:10:00,48.2,46.3,29.51,NE,42,2.0,4.0,93,0.05,,---,0.33,VWS V13.00,2013-03-20 19:10:00,
2013-03-20 12:15:00,48.7,46.8,29.50,NE,42,0.0,4.0,93,0.05,,---,0.33,VWS V13.00,2013-03-20 19:15:00,
2013-03-20 12:20:00,48.9,47.0,29.50,NE,42,0.0,4.0,93,0.05,,---,0.33,VWS V13.00,2013-03-20 19:20:00,
2013-03-20 12:25:00,49.2,47.3,29.49,NE,42,0.0,4.0,93,0.05,,---,0.33,VWS V13.00,2013-03-20 19:25:00,
2013-03-20 12:30:00,49.4,47.5,29.49,ESE,119,0.0,3.0,93,0.00,,---,0.33,VWS V13.00,2013-03-20 19:30:00,
2013-03-20 12:35:00,49.7,47.5,29.48,ESE,113,3.0,6.0,92,0.00,,---,0.33,VWS V13.00,2013-03-20 19:35:00,
2013-03-20 12:40:00,49.9,47.7,29.47,SE,142,6.0,11.0,92,0.00,,---,0.34,VWS V13.00,2013-03-20 19:40:00,
2013-03-20 12:45:00,50.1,47.6,29.47,ESE,117,3.0,11.0,91,0.03,,---,0.36,VWS V13.00,2013-03-20 19:45:00,
2013-03-20 12:50:00,50.1,47.3,29.48,SE,132,11.0,12.0,90,0.03,,---,0.36,VWS V13.00,2013-03-20 19:50:00,
2013-03-20 12:55:00,49.8,46.4,29.49,SSW,192,15.0,30.0,88,0.05,,---,0.38,VWS V13.00,2013-03-20 19:55:00,
2013-03-20 13:00:00,49.4,46.0,29.49,South,184,10.0,17.0,88,0.07,,---,0.40,VWS V13.00,2013-03-20 20:00:00,
2013-03-20 13:05:00,49.1,45.7,29.49,SSE,167,6.0,17.0,88,0.08,,---,0.41,VWS V13.00,2013-03-20 20:05:00,
2013-03-20 13:10:00,48.9,45.8,29.49,SSW,195,3.0,17.0,89,0.09,,---,0.42,VWS V13.00,2013-03-20 20:10:00,
2013-03-20 13:15:00,48.7,45.6,29.49,South,177,3.0,17.0,89,0.09,,---,0.42,VWS V13.00,2013-03-20 20:15:00,
2013-03-20 13:20:00,48.4,45.3,29.50,SE,140,10.0,17.0,89,0.10,,---,0.43,VWS V13.00,2013-03-20 20:20:00,
2013-03-20 13:25:00,48.0,44.9,29.50,SSW,208,7.0,19.0,89,0.10,,---,0.43,VWS V13.00,2013-03-20 20:25:00,
2013-03-20 13:30:00,47.8,44.7,29.49,South,190,2.0,11.0,89,0.10,,---,0.43,VWS V13.00,2013-03-20 20:30:00,
2013-03-20 13:35:00,47.7,44.9,29.49,South,185,5.0,14.0,90,0.10,,---,0.43,VWS V13.00,2013-03-20 20:35:00,
2013-03-20 13:40:00,47.7,44.9,29.49,SSE,166,4.0,14.0,90,0.10,,---,0.43,VWS V13.00,2013-03-20 20:40:00,
2013-03-20 13:45:00,47.8,45.0,29.49,South,170,11.0,14.0,90,0.10,,---,0.43,VWS V13.00,2013-03-20 20:45:00,
2013-03-20 13:50:00,47.9,45.1,29.49,SSW,209,7.0,14.0,90,0.10,,---,0.43,VWS V13.00,2013-03-20 20:50:00,
2013-03-20 13:55:00,48.0,44.9,29.49,SSW,213,11.0,14.0,89,0.10,,---,0.43,VWS V13.00,2013-03-20 20:55:00,
2013-03-20 14:00:00,48.1,44.7,29.48,SSW,203,11.0,11.0,88,0.10,,---,0.43,VWS V13.00,2013-03-20 21:00:00,
2013-03-20 14:05:00,48.2,44.8,29.48,South,171,5.0,11.0,88,0.03,,---,0.43,VWS V13.00,2013-03-20 21:05:00,
2013-03-20 14:10:00,48.3,44.6,29.48,South,173,2.0,13.0,87,0.03,,---,0.43,VWS V13.00,2013-03-20 21:10:00,
2013-03-20 14:15:00,48.4,44.4,29.47,SSE,148,6.0,14.0,86,0.03,,---,0.43,VWS V13.00,2013-03-20 21:15:00,
2013-03-20 14:20:00,48.5,44.5,29.48,South,187,3.0,14.0,86,0.03,,---,0.43,VWS V13.00,2013-03-20 21:20:00,
2013-03-20 14:25:00,48.6,44.6,29.49,SSW,201,3.0,14.0,86,0.03,,---,0.43,VWS V13.00,2013-03-20 21:25:00,
2013-03-20 14:30:00,48.7,44.7,29.49,South,184,2.0,4.0,86,0.03,,---,0.43,VWS V13.00,2013-03-20 21:30:00,
2013-03-20 14:35:00,48.9,44.6,29.49,SSE,163,11.0,14.0,85,0.00,,---,0.43,VWS V13.00,2013-03-20 21:35:00,
2013-03-20 14:40:00,49.0,44.1,29.50,SSW,195,7.0,17.0,83,0.00,,---,0.43,VWS V13.00,2013-03-20 21:40:00,
2013-03-20 14:45:00,49.0,44.1,29.50,South,191,1.0,17.0,83,0.00,,---,0.43,VWS V13.00,2013-03-20 21:45:00,
2013-03-20 14:50:00,49.2,44.6,29.50,SSW,202,1.0,17.0,84,0.00,,---,0.43,VWS V13.00,2013-03-20 21:50:00,
2013-03-20 14:55:00,49.2,44.0,29.51,SW,223,9.0,21.0,82,0.00,,---,0.43,VWS V13.00,2013-03-20 21:55:00,
2013-03-20 15:00:00,49.1,43.5,29.51,SSW,203,5.0,17.0,81,0.00,,---,0.43,VWS V13.00,2013-03-20 22:00:00,
2013-03-20 15:05:00,49.1,43.5,29.51,SE,143,10.0,22.0,81,0.00,,---,0.43,VWS V13.00,2013-03-20 22:05:00,
2013-03-20 15:10:00,49.1,43.5,29.51,South,169,6.0,22.0,81,0.00,,---,0.43,VWS V13.00,2013-03-20 22:10:00,
2013-03-20 15:15:00,49.1,43.5,29.51,SE,146,5.0,22.0,81,0.00,,---,0.43,VWS V13.00,2013-03-20 22:15:00,
2013-03-20 15:20:00,49.0,43.1,29.51,South,190,5.0,22.0,80,0.00,,---,0.43,VWS V13.00,2013-03-20 22:20:00,
2013-03-20 15:25:00,49.1,43.2,29.51,South,188,8.0,22.0,80,0.00,,---,0.43,VWS V13.00,2013-03-20 22:25:00,
2013-03-20 15:30:00,49.1,43.2,29.51,South,185,10.0,16.0,80,0.00,,---,0.43,VWS V13.00,2013-03-20 22:30:00,
2013-03-20 15:35:00,49.1,43.5,29.51,South,172,1.0,17.0,81,0.00,,---,0.43,VWS V13.00,2013-03-20 22:35:00,
2013-03-20 15:40:00,49.2,43.6,29.52,South,187,4.0,17.0,81,0.00,,---,0.43,VWS V13.00,2013-03-20 22:40:00,
2013-03-20 15:45:00,49.3,43.7,29.52,SSW,202,11.0,18.0,81,0.00,,---,0.43,VWS V13.00,2013-03-20 22:45:00,
2013-03-20 15:50:00,49.4,44.1,29.52,SSE,163,4.0,18.0,82,0.00,,---,0.43,VWS V13.00,2013-03-20 22:50:00,
2013-03-20 15:55:00,49.4,43.5,29.52,SE,132,18.0,18.0,80,0.00,,---,0.43,VWS V13.00,2013-03-20 22:55:00,
2013-03-20 16:00:00,49.4,43.5,29.51,SE,130,10.0,13.0,80,0.00,,---,0.43,VWS V13.00,2013-03-20 23:00:00,
2013-03-20 16:05:00,49.5,43.6,29.51,SSE,160,11.0,16.0,80,0.00,,---,0.43,VWS V13.00,2013-03-20 23:05:00,
2013-03-20 16:10:00,49.5,43.6,29.51,SSE,149,7.0,18.0,80,0.00,,---,0.43,VWS V13.00,2013-03-20 23:10:00,
2013-03-20 16:15:00,49.5,43.3,29.51,SSE,150,19.0,19.0,79,0.00,,---,0.43,VWS V13.00,2013-03-20 23:15:00,
2013-03-20 16:20:00,49.6,43.4,29.51,South,179,16.0,21.0,79,0.00,,---,0.43,VWS V13.00,2013-03-20 23:20:00,
2013-03-20 16:25:00,49.5,43.3,29.51,South,186,13.0,21.0,79,0.00,,---,0.43,VWS V13.00,2013-03-20 23:25:00,
2013-03-20 16:30:00,49.5,43.3,29.51,SSE,161,9.0,16.0,79,0.00,,---,0.43,VWS V13.00,2013-03-20 23:30:00,
2013-03-20 16:35:00,49.4,43.2,29.51,SSE,168,10.0,16.0,79,0.00,,---,0.43,VWS V13.00,2013-03-20 23:35:00,
2013-03-20 16:40:00,49.3,43.1,29.52,SE,140,12.0,17.0,79,0.00,,---,0.43,VWS V13.00,2013-03-20 23:40:00,
2013-03-20 16:45:00,49.2,42.3,29.52,South,171,6.0,18.0,77,0.00,,---,0.43,VWS V13.00,2013-03-20 23:45:00,
2013-03-20 16:50:00,48.8,39.1,29.53,South,171,11.0,22.0,69,0.00,,---,0.43,VWS V13.00,2013-03-20 23:50:00,
2013-03-20 16:55:00,48.5,37.7,29.54,SSE,167,11.0,22.0,66,0.00,,---,0.43,VWS V13.00,2013-03-20 23:55:00,
2013-03-20 17:00:00,48.2,37.0,29.54,SSE,149,19.0,20.0,65,0.00,,---,0.43,VWS V13.00,2013-03-21 00:00:00,
2013-03-20 17:05:00,47.7,36.9,29.54,SE,130,10.0,21.0,66,0.00,,---,0.43,VWS V13.00,2013-03-21 00:05:00,
2013-03-20 17:10:00,47.3,37.7,29.54,East,101,10.0,21.0,69,0.00,,---,0.43,VWS V13.00,2013-03-21 00:10:00,
2013-03-20 17:15:00,47.0,37.7,29.55,South,185,6.0,21.0,70,0.00,,---,0.43,VWS V13.00,2013-03-21 00:15:00,
2013-03-20 17:20:00,46.7,36.0,29.56,SW,219,5.0,24.0,66,0.00,,---,0.43,VWS V13.00,2013-03-21 00:20:00,
2013-03-20 17:25:00,46.3,35.6,29.56,South,184,13.0,24.0,66,0.00,,---,0.43,VWS V13.00,2013-03-21 00:25:00,
2013-03-20 17:30:00,46.0,35.3,29.57,SSE,164,3.0,4.0,66,0.00,,---,0.43,VWS V13.00,2013-03-21 00:30:00,
2013-03-20 17:35:00,45.7,35.4,29.56,SSE,166,1.0,10.0,67,0.00,,---,0.43,VWS V13.00,2013-03-21 00:35:00,
2013-03-20 17:40:00,45.6,35.3,29.56,SSE,161,4.0,10.0,67,0.00,,---,0.43,VWS V13.00,2013-03-21 00:40:00,
2013-03-20 17:45:00,45.6,34.5,29.56,South,180,1.0,10.0,65,0.00,,---,0.43,VWS V13.00,2013-03-21 00:45:00,
2013-03-20 17:50:00,45.6,34.9,29.56,South,184,2.0,10.0,66,0.00,,---,0.43,VWS V13.00,2013-03-21 00:50:00,
2013-03-20 17:55:00,45.6,34.9,29.57,SSE,168,2.0,10.0,66,0.00,,---,0.43,VWS V13.00,2013-03-21 00:55:00,
2013-03-20 18:00:00,45.7,35.0,29.56,SSE,159,1.0,4.0,66,0.00,,---,0.43,VWS V13.00,2013-03-21 01:00:00,
2013-03-20 18:05:00,45.9,34.8,29.56,SSE,148,4.0,6.0,65,0.00,,---,0.43,VWS V13.00,2013-03-21 01:05:00,
2013-03-20 18:10:00,46.2,35.1,29.56,SE,134,5.0,6.0,65,0.00,,---,0.43,VWS V13.00,2013-03-21 01:10:00,
2013-03-20 18:15:00,46.5,34.6,29.57,South,186,4.0,17.0,63,0.00,,---,0.43,VWS V13.00,2013-03-21 01:15:00,
2013-03-20 18:20:00,46.8,34.1,29.57,SSE,155,6.0,17.0,61,0.00,,---,0.43,VWS V13.00,2013-03-21 01:20:00,
2013-03-20 18:25:00,47.0,33.8,29.57,South,178,3.0,17.0,60,0.00,,---,0.43,VWS V13.00,2013-03-21 01:25:00,
2013-03-20 18:30:00,47.2,33.6,29.57,SE,128,5.0,10.0,59,0.00,,---,0.43,VWS V13.00,2013-03-21 01:30:00,
2013-03-20 18:35:00,47.2,33.2,29.58,SSE,162,4.0,13.0,58,0.00,,---,0.43,VWS V13.00,2013-03-21 01:35:00,
2013-03-20 18:40:00,47.2,33.6,29.58,SSE,164,3.0,14.0,59,0.00,,---,0.43,VWS V13.00,2013-03-21 01:40:00,
2013-03-20 18:45:00,47.1,33.5,29.58,South,178,4.0,14.0,59,0.00,,---,0.43,VWS V13.00,2013-03-21 01:45:00,
2013-03-20 18:50:00,47.0,33.4,29.58,SSW,199,3.0,14.0,59,0.00,,---,0.43,VWS V13.00,2013-03-21 01:50:00,
2013-03-20 18:55:00,46.8,32.4,29.59,SE,134,6.0,14.0,57,0.00,,---,0.43,VWS V13.00,2013-03-21 01:55:00,
2013-03-20 19:00:00,46.7,31.9,29.60,SSE,166,7.0,15.0,56,0.00,,---,0.43,VWS V13.00,2013-03-21 02:00:00,
2013-03-20 19:05:00,46.6,32.2,29.60,South,174,6.0,15.0,57,0.00,,---,0.43,VWS V13.00,2013-03-21 02:05:00,
2013-03-20 19:10:00,46.4,32.4,29.61,SE,140,1.0,15.0,58,0.00,,---,0.43,VWS V13.00,2013-03-21 02:10:00,
2013-03-20 19:15:00,46.2,30.9,29.61,SSW,207,3.0,21.0,55,0.00,,---,0.43,VWS V13.00,2013-03-21 02:15:00,
2013-03-20 19:20:00,45.9,30.7,29.61,SSE,168,4.0,21.0,55,0.00,,---,0.43,VWS V13.00,2013-03-21 02:20:00,
2013-03-20 19:25:00,45.7,30.5,29.61,South,190,5.0,21.0,55,0.00,,---,0.43,VWS V13.00,2013-03-21 02:25:00,
2013-03-20 19:30:00,45.5,30.3,29.62,SW,236,2.0,13.0,55,0.00,,---,0.43,VWS V13.00,2013-03-21 02:30:00,
2013-03-20 19:35:00,45.3,29.6,29.63,SSW,204,5.0,16.0,54,0.00,,---,0.43,VWS V13.00,2013-03-21 02:35:00,
2013-03-20 19:40:00,45.0,29.8,29.63,South,190,9.0,16.0,55,0.00,,---,0.43,VWS V13.00,2013-03-21 02:40:00,
2013-03-20 19:45:00,44.9,29.7,29.63,SSW,211,8.0,16.0,55,0.00,,---,0.43,VWS V13.00,2013-03-21 02:45:00,
2013-03-20 19:50:00,44.6,29.5,29.63,South,190,15.0,21.0,55,0.00,,---,0.43,VWS V13.00,2013-03-21 02:50:00,
2013-03-20 19:55:00,44.4,29.7,29.64,SW,229,6.0,21.0,56,0.00,,---,0.43,VWS V13.00,2013-03-21 02:55:00,
2013-03-20 20:00:00,44.2,29.5,29.64,SSW,205,18.0,18.0,56,0.00,,---,0.43,VWS V13.00,2013-03-21 03:00:00,
2013-03-20 20:05:00,44.0,29.3,29.64,South,189,6.0,21.0,56,0.00,,---,0.43,VWS V13.00,2013-03-21 03:05:00,
2013-03-20 20:10:00,43.8,29.1,29.64,SSW,209,10.0,21.0,56,0.00,,---,0.43,VWS V13.00,2013-03-21 03:10:00,
2013-03-20 20:15:00,43.6,29.0,29.64,South,183,3.0,22.0,56,0.00,,---,0.43,VWS V13.00,2013-03-21 03:15:00,
2013-03-20 20:20:00,43.4,29.2,29.65,SW,227,6.0,22.0,57,0.00,,---,0.43,VWS V13.00,2013-03-21 03:20:00,
2013-03-20 20:25:00,43.2,29.0,29.65,SSE,150,11.0,22.0,57,0.00,,---,0.43,VWS V13.00,2013-03-21 03:25:00,
2013-03-20 20:30:00,43.1,29.3,29.66,SSW,192,7.0,15.0,58,0.00,,---,0.43,VWS V13.00,2013-03-21 03:30:00,
2013-03-20 20:35:00,43.0,29.7,29.66,South,175,6.0,16.0,59,0.00,,---,0.43,VWS V13.00,2013-03-21 03:35:00,
2013-03-20 20:40:00,42.8,29.5,29.67,SSE,155,5.0,18.0,59,0.00,,---,0.43,VWS V13.00,2013-03-21 03:40:00,
2013-03-20 20:45:00,42.6,29.3,29.67,SW,214,8.0,20.0,59,0.00,,---,0.43,VWS V13.00,2013-03-21 03:45:00,
2013-03-20 20:50:00,42.5,28.8,29.67,South,181,10.0,24.0,58,0.00,,---,0.43,VWS V13.00,2013-03-21 03:50:00,
2013-03-20 20:55:00,42.4,28.7,29.68,SE,145,12.0,25.0,58,0.00,,---,0.43,VWS V13.00,2013-03-21 03:55:00,
2013-03-20 21:00:00,42.3,28.6,29.67,SSW,195,17.0,17.0,58,0.00,,---,0.43,VWS V13.00,2013-03-21 04:00:00,
2013-03-20 21:05:00,42.1,28.8,29.67,SSW,209,6.0,18.0,59,0.00,,---,0.43,VWS V13.00,2013-03-21 04:05:00,
2013-03-20 21:10:00,41.9,28.6,29.67,SSW,211,14.0,18.0,59,0.00,,---,0.43,VWS V13.00,2013-03-21 04:10:00,
2013-03-20 21:15:00,41.7,28.9,29.67,SSE,160,18.0,20.0,60,0.00,,---,0.43,VWS V13.00,2013-03-21 04:15:00,
2013-03-20 21:20:00,41.5,28.7,29.68,South,169,10.0,20.0,60,0.00,,---,0.43,VWS V13.00,2013-03-21 04:20:00,
2013-03-20 21:25:00,41.3,28.9,29.68,SSW,197,5.0,20.0,61,0.00,,---,0.43,VWS V13.00,2013-03-21 04:25:00,
2013-03-20 21:30:00,41.1,28.7,29.68,SSE,150,16.0,16.0,61,0.00,,---,0.43,VWS V13.00,2013-03-21 04:30:00,
2013-03-20 21:35:00,41.0,28.6,29.68,SSE,165,4.0,18.0,61,0.00,,---,0.43,VWS V13.00,2013-03-21 04:35:00,
2013-03-20 21:40:00,40.9,28.5,29.68,SSW,192,4.0,24.0,61,0.00,,---,0.43,VWS V13.00,2013-03-21 04:40:00,
2013-03-20 21:45:00,40.8,28.8,29.69,SSE,168,9.0,24.0,62,0.00,,---,0.43,VWS V13.00,2013-03-21 04:45:00,
2013-03-20 21:50:00,40.7,28.3,29.69,SSW,198,13.0,24.0,61,0.00,,---,0.43,VWS V13.00,2013-03-21 04:50:00,
2013-03-20 21:55:00,40.6,28.2,29.69,SW,234,14.0,24.0,61,0.00,,---,0.43,VWS V13.00,2013-03-21 04:55:00,
2013-03-20 22:00:00,40.6,28.2,29.68,South,185,6.0,15.0,61,0.00,,---,0.43,VWS V13.00,2013-03-21 05:00:00,
2013-03-20 22:05:00,40.6,28.2,29.69,SSW,209,12.0,20.0,61,0.00,,---,0.43,VWS V13.00,2013-03-21 05:05:00,
2013-03-20 22:10:00,40.6,28.2,29.69,South,180,4.0,20.0,61,0.00,,---,0.43,VWS V13.00,2013-03-21 05:10:00,
2013-03-20 22:15:00,40.6,28.2,29.69,ESE,123,26.0,26.0,61,0.00,,---,0.43,VWS V13.00,2013-03-21 05:15:00,
2013-03-20 22:20:00,40.6,28.2,29.69,South,187,8.0,26.0,61,0.00,,---,0.43,VWS V13.00,2013-03-21 05:20:00,
2013-03-20 22:25:00,40.6,28.2,29.70,SSE,163,4.0,26.0,61,0.00,,---,0.43,VWS V13.00,2013-03-21 05:25:00,
2013-03-20 22:30:00,40.6,28.6,29.71,South,186,9.0,13.0,62,0.00,,---,0.43,VWS V13.00,2013-03-21 05:30:00,
2013-03-20 22:35:00,40.5,28.5,29.72,SSW,207,4.0,13.0,62,0.00,,---,0.43,VWS V13.00,2013-03-21 05:35:00,
2013-03-20 22:40:00,40.4,28.4,29.73,SSE,148,4.0,16.0,62,0.00,,---,0.43,VWS V13.00,2013-03-21 05:40:00,
2013-03-20 22:45:00,40.3,28.3,29.73,South,171,7.0,16.0,62,0.00,,---,0.43,VWS V13.00,2013-03-21 05:45:00,
2013-03-20 22:50:00,40.2,28.6,29.73,SW,223,7.0,16.0,63,0.00,,---,0.43,VWS V13.00,2013-03-21 05:50:00,
2013-03-20 22:55:00,40.1,28.5,29.73,South,188,4.0,17.0,63,0.00,,---,0.43,VWS V13.00,2013-03-21 05:55:00,
2013-03-20 23:00:00,40.0,28.4,29.73,SE,144,6.0,10.0,63,0.00,,---,0.43,VWS V13.00,2013-03-21 06:00:00,
2013-03-20 23:05:00,39.9,28.3,29.74,SE,125,6.0,18.0,63,0.00,,---,0.43,VWS V13.00,2013-03-21 06:05:00,
2013-03-20 23:10:00,39.8,28.2,29.74,SW,233,3.0,24.0,63,0.00,,---,0.43,VWS V13.00,2013-03-21 06:10:00,
2013-03-20 23:15:00,39.8,28.6,29.74,SSE,163,4.0,24.0,64,0.00,,---,0.43,VWS V13.00,2013-03-21 06:15:00,
2013-03-20 23:20:00,39.7,28.5,29.74,South,183,2.0,24.0,64,0.00,,---,0.43,VWS V13.00,2013-03-21 06:20:00,
2013-03-20 23:25:00,39.6,28.8,29.75,South,183,10.0,24.0,65,0.00,,---,0.43,VWS V13.00,2013-03-21 06:25:00,
2013-03-20 23:30:00,39.5,28.7,29.75,SSE,159,8.0,13.0,65,0.00,,---,0.43,VWS V13.00,2013-03-21 06:30:00,
2013-03-20 23:35:00,39.3,28.9,29.76,South,169,10.0,17.0,66,0.00,,---,0.43,VWS V13.00,2013-03-21 06:35:00,
2013-03-20 23:40:00,39.2,29.2,29.76,South,190,3.0,17.0,67,0.00,,---,0.43,VWS V13.00,2013-03-21 06:40:00,
2013-03-20 23:45:00,39.1,29.1,29.76,SSE,164,8.0,17.0,67,0.00,,---,0.43,VWS V13.00,2013-03-21 06:45:00,
2013-03-20 23:50:00,38.8,29.2,29.77,SSE,155,6.0,17.0,68,0.00,,---,0.43,VWS V13.00,2013-03-21 06:50:00,
2013-03-20 23:55:00,38.6,29.0,29.77,SE,145,13.0,18.0,68,0.00,,---,0.43,VWS V13.00,2013-03-21 06:55:00,